Location: Invercargill
(46.4000°S, 168.3500°E)
Time: 06:21:57
(UTC+13:00)

ISS - Pass Details

Date: 02 February 2019
Orbit: 403 x 411 km, 51.6° (Epoch: 20 February)

Event Time Altitude Azimuth Distance (km) Brightness Sun altitude
Exits shadow 06:03:43 - 287° (WNW) 1,694 -1.3 -6.2°
Reaches altitude 10° 06:04:13 10° 286° (WNW) 1,495 -1.6 -6.2°
Maximum altitude 06:07:33 64° 202° (SSW) 467 -3.5 -5.7°
Drops below altitude 10° 06:10:54 10° 120° (ESE) 1,500 1.0 -5.2°
Sets 06:13:01 0° 116° (ESE) 2,364 2.9 -4.9°
